Terminal Aerodrome Forecast
Issued by NWS Jackson, MS

Home | Current Version | Previous Version | Text Only | Print | Product List | Glossary On
Versions: 1 2 3 4 5 6 7 8 9 10 11 12 13 14
000
FTUS44 KMEG 211134
TAFTUP
TAF
KTUP 211134Z 2112/2212 00000KT P6SM FEW250
     FM211500 22006KT P6SM BKN250
     FM212300 VRB03KT P6SM BKN250
     FM220700 02009KT P6SM FEW030 SCT150 BKN250=

USA.gov is the U.S. government's official web portal to all federal, state and local government web resources and services.